VIV1022 MMMX-MMUN

Flight info

Callsign VIV1022
Flight time N/A
Altitude 37000
Route UKUNO3A UKUNO UT108 VER UJ24 GOTAS UT65 PAULE PAULE3G
Aircraft A21N/M-SDE3FGHIRWY/LB1

Departure

Time 2026-05-07 20:32
Airport Mexico City Benito Juárez International Airport (MMMX)

Arrival

Time N/A
Airport Cancún International Airport (MMUN)
Time Latitude Longitude Altitude Speed Heading
2026-05-07 20:17 19.43204 -99.08675 7344 ft 0 kts 336°
2026-05-07 20:22 19.43200 -99.08672 7343 ft 2 kts 336°
2026-05-07 20:23 19.43188 -99.08667 7343 ft 1 kts 335°
2026-05-07 20:23 19.43174 -99.08660 7343 ft 2 kts 336°
2026-05-07 20:23 19.43161 -99.08654 7343 ft 2 kts 335°
2026-05-07 20:23 19.43152 -99.08649 7343 ft 2 kts 335°
2026-05-07 20:24 19.43140 -99.08639 7343 ft 2 kts 300°
2026-05-07 20:24 19.43135 -99.08624 7343 ft 2 kts 272°
2026-05-07 20:24 19.43138 -99.08608 7343 ft 1 kts 246°
2026-05-07 20:24 19.43141 -99.08603 7343 ft 1 kts 238°
2026-05-07 20:25 19.43142 -99.08601 7343 ft 0 kts 240°
2026-05-07 20:28 19.43141 -99.08603 7343 ft 0 kts 240°
2026-05-07 20:28 19.43136 -99.08611 7343 ft 1 kts 240°
2026-05-07 20:28 19.43126 -99.08630 7343 ft 4 kts 240°
2026-05-07 20:28 19.43108 -99.08663 7343 ft 6 kts 240°
2026-05-07 20:29 19.43083 -99.08710 7342 ft 8 kts 240°
2026-05-07 20:29 19.43049 -99.08771 7341 ft 10 kts 239°
2026-05-07 20:29 19.43007 -99.08845 7340 ft 11 kts 239°
2026-05-07 20:29 19.42963 -99.08923 7338 ft 12 kts 238°
2026-05-07 20:30 19.42915 -99.09004 7337 ft 9 kts 231°
2026-05-07 20:30 19.42872 -99.09040 7336 ft 3 kts 207°
2026-05-07 20:30 19.42843 -99.09056 7335 ft 6 kts 207°
2026-05-07 20:30 19.42796 -99.09081 7334 ft 9 kts 201°
2026-05-07 20:31 19.42759 -99.09054 7334 ft 4 kts 72°
2026-05-07 20:31 19.42763 -99.09045 7334 ft 0 kts 63°
2026-05-07 20:31 19.42798 -99.08976 7335 ft 37 kts 59°
2026-05-07 20:31 19.43047 -99.08542 7343 ft 99 kts 59°
2026-05-07 20:32 19.43494 -99.07739 7341 ft 153 kts 59°
2026-05-07 20:32 19.44100 -99.06641 7497 ft 182 kts 58°
2026-05-07 20:32 19.44698 -99.05526 8211 ft 171 kts 58°
2026-05-07 20:32 19.45319 -99.04424 8632 ft 181 kts 57°
2026-05-07 20:33 19.45983 -99.03272 9124 ft 188 kts 57°
2026-05-07 20:33 19.46692 -99.02039 9525 ft 202 kts 59°
2026-05-07 20:33 19.47433 -99.00728 9871 ft 213 kts 59°
2026-05-07 20:33 19.48205 -98.99354 10080 ft 222 kts 59°
2026-05-07 20:34 19.49005 -98.97926 10288 ft 232 kts 59°
2026-05-07 20:34 19.49847 -98.96423 10431 ft 246 kts 59°
2026-05-07 20:34 19.50745 -98.94822 10646 ft 258 kts 59°
2026-05-07 20:34 19.51680 -98.93157 10874 ft 270 kts 59°
2026-05-07 20:35 19.51940 -98.92693 10927 ft 274 kts 59°
2026-05-07 20:35 19.51949 -98.92678 10928 ft 274 kts 59°
2026-05-07 20:35 19.52888 -98.90874 11166 ft 285 kts 64°
2026-05-07 20:35 19.53477 -98.89390 11335 ft 294 kts 71°
2026-05-07 20:36 19.53865 -98.88123 11488 ft 300 kts 73°
2026-05-07 20:36 19.54041 -98.87486 11593 ft 302 kts 75°
2026-05-07 20:36 19.54421 -98.86034 11884 ft 305 kts 75°
2026-05-07 20:36 19.54985 -98.83852 12390 ft 306 kts 75°
2026-05-07 20:37 19.55205 -98.83003 12574 ft 307 kts 75°
2026-05-07 20:37 19.55768 -98.80833 13062 ft 308 kts 75°
2026-05-07 20:37 19.56345 -98.78625 13534 ft 310 kts 75°
2026-05-07 20:37 19.56918 -98.76444 13978 ft 313 kts 75°
2026-05-07 20:38 19.57417 -98.74184 14439 ft 314 kts 83°
2026-05-07 20:38 19.57481 -98.71751 14900 ft 316 kts 96°
2026-05-07 20:38 19.57087 -98.69207 15136 ft 327 kts 103°
2026-05-07 20:38 19.56559 -98.66635 15363 ft 338 kts 103°
2026-05-07 20:39 19.55992 -98.63924 15589 ft 348 kts 103°
2026-05-07 20:39 19.55424 -98.61167 15811 ft 359 kts 103°
2026-05-07 20:39 19.54839 -98.58280 16186 ft 364 kts 103°
2026-05-07 20:39 19.54261 -98.55407 16655 ft 366 kts 103°
2026-05-07 20:40 19.53675 -98.52480 17132 ft 367 kts 103°
2026-05-07 20:40 19.53091 -98.49564 17598 ft 369 kts 103°
2026-05-07 20:40 19.52493 -98.46581 18064 ft 371 kts 103°
2026-05-07 20:40 19.51891 -98.43580 18515 ft 373 kts 104°
2026-05-07 20:41 19.51293 -98.40599 18944 ft 375 kts 104°
2026-05-07 20:41 19.50708 -98.37688 19341 ft 378 kts 104°
2026-05-07 20:41 19.50119 -98.34757 19743 ft 380 kts 104°
2026-05-07 20:41 19.49551 -98.31938 20120 ft 382 kts 104°
2026-05-07 20:42 19.48982 -98.29112 20500 ft 385 kts 104°
2026-05-07 20:42 19.48400 -98.26220 20875 ft 387 kts 104°
2026-05-07 20:42 19.47808 -98.23268 21261 ft 389 kts 104°
2026-05-07 20:42 19.47226 -98.20373 21627 ft 391 kts 105°
2026-05-07 20:43 19.46660 -98.17567 21976 ft 394 kts 105°
2026-05-07 20:43 19.46086 -98.14724 22325 ft 396 kts 105°
2026-05-07 20:43 19.45511 -98.11887 22668 ft 398 kts 105°
2026-05-07 20:43 19.44932 -98.09029 23009 ft 400 kts 105°
2026-05-07 20:44 19.44340 -98.06112 23345 ft 402 kts 105°
2026-05-07 20:44 19.43762 -98.03218 23668 ft 405 kts 104°
2026-05-07 20:44 19.43297 -98.00248 23990 ft 409 kts 101°
2026-05-07 20:44 19.42975 -97.97257 24298 ft 412 kts 99°
2026-05-07 20:45 19.42664 -97.94044 24616 ft 415 kts 99°
2026-05-07 20:45 19.42350 -97.90752 24945 ft 418 kts 98°
2026-05-07 20:45 19.42033 -97.87440 25272 ft 420 kts 98°
2026-05-07 20:45 19.41714 -97.84128 25588 ft 423 kts 98°
2026-05-07 20:46 19.41393 -97.80805 25901 ft 426 kts 98°
2026-05-07 20:46 19.41070 -97.77464 26213 ft 428 kts 98°
2026-05-07 20:46 19.40748 -97.74162 26491 ft 431 kts 98°
2026-05-07 20:46 19.40427 -97.70865 26764 ft 434 kts 98°
2026-05-07 20:47 19.40103 -97.67540 27057 ft 437 kts 98°
2026-05-07 20:47 19.39785 -97.64291 27339 ft 439 kts 98°
2026-05-07 20:47 19.39469 -97.61056 27610 ft 441 kts 98°
2026-05-07 20:47 19.39151 -97.57814 27875 ft 443 kts 98°
2026-05-07 20:48 19.38833 -97.54587 28139 ft 445 kts 98°
2026-05-07 20:48 19.38508 -97.51293 28403 ft 448 kts 98°
2026-05-07 20:48 19.38188 -97.48039 28657 ft 450 kts 97°
2026-05-07 20:48 19.37863 -97.44756 28907 ft 452 kts 97°
2026-05-07 20:49 19.37535 -97.41452 29161 ft 454 kts 97°
2026-05-07 20:49 19.37202 -97.38105 29414 ft 456 kts 97°
2026-05-07 20:49 19.36871 -97.34772 29672 ft 457 kts 97°
2026-05-07 20:49 19.36538 -97.31430 29937 ft 459 kts 97°
2026-05-07 20:50 19.36200 -97.28042 30181 ft 460 kts 97°
2026-05-07 20:50 19.35866 -97.24694 30420 ft 462 kts 97°
2026-05-07 20:50 19.35529 -97.21330 30716 ft 462 kts 97°
2026-05-07 20:50 19.35193 -97.17971 31065 ft 460 kts 97°
2026-05-07 20:51 19.34852 -97.14583 31418 ft 459 kts 98°
2026-05-07 20:51 19.34516 -97.11262 31756 ft 458 kts 98°
2026-05-07 20:51 19.34174 -97.07906 32092 ft 457 kts 98°
2026-05-07 20:51 19.33735 -97.04617 32424 ft 455 kts 102°
2026-05-07 20:52 19.33121 -97.01334 32765 ft 452 kts 105°
2026-05-07 20:52 19.32411 -96.98128 33087 ft 451 kts 105°
2026-05-07 20:52 19.31677 -96.94895 33396 ft 450 kts 105°
2026-05-07 20:52 19.30950 -96.91697 33689 ft 449 kts 105°
2026-05-07 20:53 19.30223 -96.88502 33973 ft 449 kts 105°
2026-05-07 20:53 19.29488 -96.85268 34259 ft 448 kts 105°
2026-05-07 20:53 19.28763 -96.82080 34519 ft 448 kts 105°
2026-05-07 20:53 19.28045 -96.78918 34764 ft 448 kts 105°
2026-05-07 20:54 19.27315 -96.75706 35001 ft 448 kts 105°
2026-05-07 20:54 19.26590 -96.72510 35211 ft 448 kts 105°
2026-05-07 20:54 19.25857 -96.69286 35397 ft 450 kts 105°
2026-05-07 20:54 19.25129 -96.66080 35564 ft 451 kts 105°
2026-05-07 20:55 19.24399 -96.62872 35721 ft 452 kts 105°
2026-05-07 20:55 19.23656 -96.59612 35886 ft 454 kts 105°
2026-05-07 20:55 19.22919 -96.56381 36051 ft 454 kts 105°
2026-05-07 20:55 19.22182 -96.53152 36211 ft 455 kts 105°
2026-05-07 20:56 19.21444 -96.49919 36360 ft 456 kts 105°
2026-05-07 20:56 19.20691 -96.46626 36496 ft 458 kts 105°
2026-05-07 20:56 19.19949 -96.43380 36615 ft 459 kts 105°
2026-05-07 20:56 19.19204 -96.40125 36740 ft 460 kts 105°
2026-05-07 20:57 19.18444 -96.36812 36864 ft 461 kts 105°
2026-05-07 20:57 19.16933 -96.30227 36874 ft 463 kts 105°
2026-05-07 20:58 19.15676 -96.23563 36873 ft 464 kts 99°
2026-05-07 20:58 19.15193 -96.16754 36871 ft 465 kts 91°
2026-05-07 20:59 19.15528 -96.09943 36867 ft 466 kts 84°
2026-05-07 20:59 19.16431 -96.03202 36863 ft 466 kts 82°
2026-05-07 21:00 19.17376 -95.96448 36858 ft 465 kts 82°
2026-05-07 21:00 19.18306 -95.89659 36854 ft 465 kts 82°
2026-05-07 21:01 19.19219 -95.82924 36852 ft 465 kts 82°
2026-05-07 21:01 19.20130 -95.76173 36852 ft 465 kts 82°
2026-05-07 21:02 19.21041 -95.69417 36852 ft 465 kts 82°
2026-05-07 21:02 19.21947 -95.62673 36853 ft 465 kts 82°
2026-05-07 21:03 19.22854 -95.55894 36852 ft 464 kts 82°
2026-05-07 21:03 19.23752 -95.49168 36852 ft 464 kts 82°
2026-05-07 21:04 19.24650 -95.42422 36852 ft 464 kts 82°
2026-05-07 21:04 19.25546 -95.35667 36852 ft 464 kts 82°
2026-05-07 21:05 19.25843 -95.33422 36851 ft 464 kts 82°